User: anonymous   Login
Location: Newark
(44.9333°N, 0.5667°E)
Time: 13:30:18
(UTC+00:00)
Language:

AO-85 - Orbit

View from above orbital plane
View from above orbital plane
View from above satellite
View from above satellite

Ground track
Ground track

The orbit data is extracted from the following two-line orbital elements,

1 40967U 15058D   20044.57851173  .00000074  00000-0  27628-4 0  9532
2 40967  64.7749 149.9527 0173312 121.0067 240.8169 14.76069889143147
Epoch (UTC): 13 February 2020 13:53:03
Eccentricity: 0.0173312
inclination: 64.7749°
perigee height: 520 km
apogee height: 763 km
right ascension of ascending node: 149.9527°
argument of perigee: 121.0067°
revolutions per day: 14.76069889
mean anomaly at epoch: 240.8169°
orbit number at epoch: 14314

The dashed part of the orbit path shows where the satellite is in the earth's shadow,  

DLR